Weather Roundup
Issued by NWS Corpus Christi, TX

Home | Current Version | Previous Version | Text Only | Print | Product List | Glossary On
Versions: 1 2 3 4 5 6 7 8 9 10 11 12 13 14 15 16 17 18 19 20 21 22 23 24 25 26 27 28 29 30 31 32 33 34 35 36 37 38 39 40 41 42 43 44 45 46 47 48 49 50
811
ASUS44 KCRP 290610
HRRCRP

SOUTH TEXAS REGIONAL WEATHER ROUNDUP
NATIONAL WEATHER SERVICE CORPUS CHRISTI TX
100 AM CDT WED MAR 29 2017


TXZ229>244-290700-
...CORPUS CHRISTI AREA OBSERVATIONS...

CITY           SKY/WX    TMP DP  RH WIND       PRES   REMARKS
CORPUS CHRISTI CLOUDY    76  72  87 S31G39    29.64F
NAS CORPUS CHR CLOUDY    76  73  91 S28G38    29.64F
ROCKPORT       NOT AVBL
KINGSVILLE NAS CLOUDY    77  72  84 S25G35    29.62F
ALICE          CLOUDY    76  70  82 S22G30    29.61F
ORANGE GROVE   CLOUDY    77  71  82 S22G31    29.65R
FALFURRIAS     PTCLDY    76  70  82 S21G28    29.62F
$$

...VICTORIA AREA OBSERVATIONS...

CITY           SKY/WX    TMP DP  RH WIND       PRES   REMARKS
VICTORIA       CLOUDY    76  69  79 SE25G33   29.69F
BEEVILLE       CLOUDY    76  72  87 S24G32    29.65R
PLEASANTON     CLOUDY    74  68  80 SE17G25   29.61S
SAN ANTONIO    CLOUDY    73  66  78 VRB7      29.70R
$$

...LAREDO AREA OBSERVATIONS...

CITY           SKY/WX    TMP DP  RH WIND       PRES   REMARKS
LAREDO         CLOUDY    76  69  79 S20G28    29.60R
COTULLA        CLOUDY    74  67  78 S12       29.59R
DEL RIO        CLOUDY    60  51  72 NE7       29.74R
MCALLEN        CLOUDY    78  70  76 SE23G30   29.67S
HEBBRONVILLE   PTCLDY    73  67  83 S15G26    29.63S
$$

...OTHER TEXAS OBSERVATIONS...

CITY           SKY/WX    TMP DP  RH WIND       PRES   REMARKS
BROWNSVILLE    CLOUDY    77  72  84 S20G29    29.69F
HOUSTON        MOCLDY    75  67  76 S21G28    29.73F
COL. STATION   CLOUDY    74  68  81 S15G24    29.70R
AUSTIN         CLOUDY    75  67  76 S22G31    29.65R
WACO           CLOUDY    73  67  81 SE18G25   29.67R
FORT WORTH     MOCLDY    74  64  71 SE20G25   29.66F
WICHITA FALLS  TSTM      57  54  89 NW20G28   29.75R FOG
LUBBOCK        CLOUDY    52  48  86 NE15      29.69F
EL PASO        PTCLDY    56  29  35 W13G23    29.86R
$$

...MARINE OBSERVATIONS...

STATION/POSITION TIME  SKY/WX   TEMP    WIND        PRES    VSBY  WAVE   SWELL
                                AIR SEA DIR/SP/G                  HT/PER HT/PER
                 (UTC)          (F)     (DEG/KT/KT) (MB)    (MI)  (FT/S) (FT/S)
PORT ARANSAS     0600            73 73  150/ 25/ 29 1004.3F
BUOY 90 E PORT A 0550            75 72  130/ 23/ 29 1006.0F         8/ 7   2/13
BUOY 45 SE BAFFI 0550            74     170/ 17/ 21 1005.4R         8/ 8
BUOY 200 E PT IS 0550            76 77  130/ 23/ 27 1007.7F         8/ 7
BUOY 15 E GALVES 0550            73 72  150/ 21/ 27 1007.1F         6/ 6
$$




USA.gov is the U.S. government's official web portal to all federal, state and local government web resources and services.